Location: Althorst
(53.6379°N, 10.7715°E)
Time: 10:05:44
(UTC+00:00)

Envisat - Pass Details

Date: 10 December 2019
Orbit: 764 x 766 km, 98.1° (Epoch: 26 January)

Event Time Altitude Azimuth Distance (km) Brightness Sun altitude
Rises 15:58:54 0° 135° (SE) 3,227 6.1 -8.5°
Reaches altitude 10° 16:01:20 10° 127° (SE) 2,305 5.2 -8.8°
Maximum altitude 16:05:56 36° 62° (ENE) 1,214 3.5 -9.4°
Drops below altitude 10° 16:10:33 10° 358° (N) 2,319 5.3 -10.0°
Sets 16:13:00 0° 350° (N) 3,249 6.1 -10.4°
